Belize, Belize

11:50 AM CST on February 12, 2016 (GMT -0600)
Philip S W Goldson International

Weather History for MZBZ - December, 2012

Change the Weather History Date:

Tuesday, December 4, 2012

  Actual Average Record
Temperature  
Mean Temperature 76 °F -  
Max Temperature 83 °F - 91 °F (1997)
Min Temperature 70 °F 69 °F 35 °F (2007)
Cooling Degree Days 12    
Growing Degree Days 26 (Base 50)    
Moisture  
Dew Point 72 °F    
Average Humidity 83    
Maximum Humidity 100    
Minimum Humidity 58    
Precipitation  
Precipitation 0.08 in 0.22 in - ()
Sea Level Pressure  
Sea Level Pressure 30.03 in    
Wind  
Wind Speed 3 mph ()    
Max Wind Speed 10 mph    
Max Gust Speed -    
Visibility 7.7 miles    
Events Fog , Rain    
Averages and records for this station are not official NWS values.
T = Trace of Precipitation, MM = Missing Value Source: Averaged Metar Reports

Daily Weather History Graph

Daily Weather History Graph

Search for Another Location

Airport or City:

Trip Planner

Search our weather history database for the weather conditions in past years. The results will help you decide how hot, cold, wet, or windy it might be!

Date:

Astronomy

Dec. 04, 2012 Rise Set
Actual Time 6:09 AM CST 5:17 PM CST
Civil Twilight 5:46 AM CST 5:41 PM CST
Nautical Twilight 5:19 AM CST 6:08 PM CST
Astronomical Twilight 4:52 AM CST 6:34 PM CST
Moon 10:32 PM CST (12/4) 10:31 AM CST (12/4)
Length of Visible Light 11h 54m
Length of Day
11h 08m
Waning Gibbous, 69% of the Moon is Illuminated
Dec 4
Waning Gibbous
Dec 6
Last Quarter
Dec 13
New
Dec 19
First Quarter
Dec 28
Full

Hourly Weather History & Observations

Time (CST) Temp. Heat Index Dew Point Humidity Pressure Visibility Wind Dir Wind Speed Gust Speed Precip Events Conditions
12:00 AM 74 °F - 72 °F 93% 30.03 in 12 mi Calm Calm - -   Mostly Cloudy
3:00 AM 73 °F - 71 °F 93% 30.00 in 12 mi Calm Calm - -   Mostly Cloudy
5:00 AM 71.6 °F - 69.8 °F 94% 30.01 in 6.2 mi Calm Calm - N/A   Scattered Clouds
6:00 AM 71 °F - 71 °F 98% 30.02 in 3 mi West 3.5 mph - - Fog Light Fog
6:00 AM 71.6 °F - 69.8 °F 94% 30.01 in 3.1 mi West 3.5 mph - N/A Fog Fog
7:00 AM 71.6 °F - 71.6 °F 100% 30.04 in 6.2 mi West 3.5 mph - N/A Rain Light Rain Showers
8:00 AM 75.2 °F - 73.4 °F 94% 30.06 in 6.2 mi Calm Calm - N/A   Mostly Cloudy
9:00 AM 79 °F - 74 °F 80% 30.08 in 12 mi Calm Calm - -   Partly Cloudy
9:00 AM 78.8 °F - 73.4 °F 83% 30.07 in 6.2 mi Calm Calm - N/A   Mostly Cloudy
10:00 AM 80.6 °F 84.6 °F 71.6 °F 74% 30.08 in 6.2 mi East 9.2 mph - N/A   Mostly Cloudy
11:00 AM 84.2 °F 90.9 °F 73.4 °F 70% 30.07 in 6.2 mi ENE 10.4 mph - N/A   Mostly Cloudy
12:00 PM 83 °F - 71 °F 58% 30.05 in 12 mi East 8.1 mph - -   Partly Cloudy
12:00 PM 82.4 °F 86.3 °F 69.8 °F 66% 30.04 in 6.2 mi East 8.1 mph - N/A   Mostly Cloudy
1:00 PM 77.0 °F - 71.6 °F 83% 30.03 in 5.0 mi ENE 6.9 mph - N/A Rain Light Rain Showers
2:00 PM 78.8 °F - 69.8 °F 74% 30.01 in 6.2 mi NNE 8.1 mph - N/A   Mostly Cloudy
3:00 PM 77 °F - 73 °F 85% 30.01 in 12 mi NNE 3.5 mph - - Rain Light Rain Showers
3:00 PM 77.0 °F - 73.4 °F 89% 30.00 in 6.2 mi NNE 3.5 mph - N/A   Mostly Cloudy
4:00 PM 80.6 °F 84.6 °F 71.6 °F 74% 30.00 in 6.2 mi ENE 8.1 mph - N/A   Mostly Cloudy
5:00 PM 80.6 °F 85.4 °F 73.4 °F 79% 30.01 in 6.2 mi ENE 8.1 mph - N/A   Mostly Cloudy
6:00 PM 79 °F - 71 °F 69% 30.03 in 12 mi NE 5.8 mph - -   Mostly Cloudy
6:00 PM 78.8 °F - 69.8 °F 74% 30.03 in 6.2 mi NE 5.8 mph - N/A   Mostly Cloudy
9:00 PM 73 °F - 72 °F 96% 30.08 in 12 mi Calm Calm - -   Mostly Cloudy